Date,TemperatureHighF,TemperatureAvgF,TemperatureLowF,DewpointHighF,DewpointAvgF,DewpointLowF,HumidityHigh,HumidityAvg,HumidityLow,PressureMaxIn,PressureMinIn,WindSpeedMaxMPH,WindSpeedAvgMPH,GustSpeedMaxMPH,PrecipitationSumIn
2013-1-1,22,13,8,14,7,3,90,79,46,0.00,40.00,0,-999,0,0.01
2013-1-2,13,9,6,8,2,-3,89,72,55,0.00,40.00,0,-999,0,0.00
2013-1-3,39,26,10,8,-3,-12,52,29,16,0.00,40.00,0,-999,0,0.01
2013-1-4,37,31,22,5,-2,-7,41,25,15,0.00,40.00,0,-999,0,0.01
2013-1-5,29,21,12,10,-1,-26,78,44,9,0.00,40.00,0,-999,0,0.00
2013-1-6,39,31,27,13,-2,-20,56,27,9,0.00,40.00,0,-999,0,0.01
2013-1-7,30,25,18,16,10,7,69,54,37,0.00,40.00,0,-999,0,0.00
2013-1-8,24,22,20,15,12,9,79,66,54,0.00,40.00,0,-999,0,0.00
2013-1-9,45,35,25,16,8,0,68,36,20,0.00,40.00,0,-999,0,0.01
2013-1-10,38,32,13,19,6,-100,81,41,20,0.00,40.00,0,-999,0,0.00
2013-1-11,9,-1,-7,8,-4,-11,93,85,80,0.00,40.00,0,-999,0,0.00
2013-1-12,0,-4,-7,-4,-8,-12,85,82,80,0.00,40.00,0,-999,0,0.00
2013-1-13,-1,-8,-39,-7,-12,-42,82,80,75,0.00,40.00,0,-999,0,0.00
2013-1-14,9,-1,-9,3,-13,-100,77,66,55,0.00,40.00,0,-999,0,0.00
2013-1-15,29,22,11,24,17,6,90,83,73,0.00,40.00,0,-999,0,0.02
2013-1-16,31,26,21,18,13,9,74,57,41,0.00,40.00,0,-999,0,0.00
2013-1-17,36,28,19,13,8,3,68,45,29,0.00,40.00,0,-999,0,0.00
2013-1-18,38,32,28,6,3,-1,36,29,22,0.00,40.00,0,-999,0,0.01
2013-1-19,36,28,23,6,0,-4,43,30,19,0.00,40.00,0,-999,0,0.00
2013-1-20,27,21,12,16,8,-1,87,57,31,0.00,40.00,0,-999,0,0.00
2013-1-21,35,28,21,12,6,-2,63,41,25,0.00,40.00,0,-999,0,0.00
2013-1-22,39,34,28,0,-7,-11,27,17,13,0.00,40.00,0,-999,0,0.00
2013-1-23,44,38,33,-1,-5,-10,23,16,12,0.00,40.00,0,-999,0,0.00
2013-1-24,39,33,26,19,11,-6,67,44,14,0.00,40.00,0,-999,0,0.00
2013-1-25,41,31,26,19,15,7,61,50,37,0.00,40.00,0,-999,0,0.00
2013-1-26,39,32,27,21,18,16,68,57,45,0.00,40.00,0,-999,0,0.00
2013-1-27,33,25,15,21,18,14,96,76,54,0.00,40.00,0,-999,0,0.01
2013-1-28,15,11,4,13,9,1,94,91,87,0.00,40.00,0,-999,0,0.01
2013-1-29,10,4,-1,7,0,-5,86,83,78,0.00,40.00,0,-999,0,0.00
2013-1-30,19,12,2,17,9,-4,91,86,77,0.00,40.00,0,-999,0,0.01
2013-1-31,23,20,10,19,16,7,92,84,78,0.00,40.00,0,-999,0,0.01
2013-2-1,25,22,19,21,16,12,89,79,70,0.00,40.00,0,-999,0,0.01
2013-2-2,30,23,17,17,12,8,83,63,45,0.00,40.00,0,-999,0,0.00
2013-2-3,36,28,22,13,6,3,63,41,24,0.00,40.00,0,-999,0,0.00
2013-2-4,30,26,22,17,13,8,67,57,50,0.00,40.00,0,-999,0,0.00
2013-2-5,35,27,20,21,15,8,80,60,47,0.00,40.00,0,-999,0,0.00
2013-2-6,28,22,14,20,14,8,91,71,44,0.00,40.00,0,-999,0,0.00
2013-2-7,36,23,10,11,-3,-12,84,38,15,0.00,40.00,0,-999,0,0.00
2013-2-8,29,23,17,7,-2,-15,67,34,14,0.00,40.00,0,-999,0,0.01
2013-2-9,22,16,13,18,14,9,94,88,80,0.00,40.00,0,-999,0,0.00
2013-2-10,13,9,3,11,6,-1,92,88,83,0.00,40.00,0,-999,0,0.01
2013-2-11,21,10,0,2,-4,-12,83,55,30,0.00,40.00,0,-999,0,0.00
2013-2-12,26,19,12,16,10,-4,79,68,45,0.00,40.00,0,-999,0,0.01
2013-2-13,28,21,17,18,14,11,92,74,53,0.00,40.00,0,-999,0,0.00
2013-2-14,17,10,6,14,6,3,91,83,68,0.00,40.00,0,-999,0,0.00
2013-2-15,24,17,9,19,11,6,91,80,60,0.00,40.00,0,-999,0,0.02
2013-2-16,39,29,21,20,15,9,84,59,34,0.00,40.00,0,-999,0,0.01
2013-2-17,31,21,13,19,11,1,95,69,28,0.00,40.00,0,-999,0,0.00
2013-2-18,18,11,6,12,6,-2,90,79,61,0.00,40.00,0,-999,0,0.00
2013-2-19,38,24,7,7,-4,-13,68,32,14,0.00,40.00,0,-999,0,0.01
2013-2-20,29,21,13,9,5,2,76,51,32,0.00,40.00,0,-999,0,0.01
2013-2-21,22,14,8,15,7,2,90,75,56,0.00,40.00,0,-999,0,0.00
2013-2-22,22,12,4,7,-1,-100,90,65,40,0.00,40.00,0,-999,0,0.00
2013-2-23,26,20,12,20,7,-100,93,72,62,0.00,40.00,0,-999,0,0.01
2013-2-24,18,12,7,11,2,-100,92,81,77,0.00,40.00,0,-999,0,0.02
2013-2-25,35,24,13,18,12,8,79,62,40,0.00,40.00,0,-999,0,0.01
2013-2-26,18,14,7,14,10,4,92,86,76,0.00,40.00,0,-999,0,0.01
2013-2-27,24,13,5,10,5,1,84,71,45,0.00,40.00,0,-999,0,0.00
2013-2-28,24,18,11,12,7,3,75,63,48,0.00,40.00,0,-999,0,0.00
2013-3-1,36,28,18,27,18,-4,86,66,32,0.00,40.00,0,-999,0,0.01
2013-3-2,46,36,29,22,19,14,70,53,29,0.00,40.00,0,-999,0,0.00
2013-3-3,39,30,12,27,19,10,93,66,50,0.00,40.00,0,-999,0,0.00
2013-3-4,12,7,2,9,-2,-11,87,67,51,0.00,40.00,0,-999,0,0.00
2013-3-5,35,21,6,0,-9,-100,64,33,14,0.00,40.00,0,-999,0,0.01
2013-3-6,44,33,24,18,9,-2,56,38,21,0.00,40.00,0,-999,0,0.01
2013-3-7,35,27,20,24,14,6,84,59,29,0.00,40.00,0,-999,0,0.00
2013-3-8,37,29,20,23,20,15,90,71,53,0.00,40.00,0,-999,0,0.00
2013-3-9,25,19,12,22,16,9,93,87,76,0.00,40.00,0,-999,0,0.00
2013-3-10,40,25,10,17,6,1,84,48,26,0.00,40.00,0,-999,0,0.01
2013-3-11,28,21,9,21,14,4,93,78,34,0.00,40.00,0,-999,0,0.01
2013-3-12,33,21,8,19,10,-2,91,66,23,0.00,40.00,0,-999,0,0.01
2013-3-13,45,37,30,23,21,18,73,54,37,0.00,40.00,0,-999,0,0.01
2013-3-14,48,41,33,25,21,18,58,45,32,0.00,40.00,0,-999,0,0.00
2013-3-15,47,39,27,26,19,13,85,46,30,0.00,40.00,0,-999,0,0.00
2013-3-16,31,28,24,25,23,18,95,83,70,0.00,40.00,0,-999,0,0.00
2013-3-17,30,22,11,21,14,4,92,73,43,0.00,40.00,0,-999,0,0.00
2013-3-18,22,14,7,11,4,-1,86,65,45,0.00,40.00,0,-999,0,0.00
2013-3-19,19,14,9,14,7,-1,87,74,53,0.00,40.00,0,-999,0,0.00
2013-3-20,41,32,18,22,10,-16,60,43,16,0.00,40.00,0,-999,0,0.01
2013-3-21,32,22,13,22,17,9,96,84,50,0.00,40.00,0,-999,0,0.01
2013-3-22,14,10,4,11,6,1,89,83,68,0.00,40.00,0,-999,0,0.01
2013-3-23,11,4,-3,5,-1,-8,87,81,77,0.00,40.00,0,-999,0,0.01
2013-3-24,8,3,-2,2,-2,-7,86,79,72,0.00,40.00,0,-999,0,0.00
2013-3-25,26,15,1,12,2,-5,80,57,40,0.00,40.00,0,-999,0,0.01
2013-3-26,33,24,12,10,4,-1,60,43,28,0.00,40.00,0,-999,0,0.01
2013-3-27,39,29,18,18,14,8,73,55,34,0.00,40.00,0,-999,0,0.01
2013-3-28,43,33,24,24,12,-100,73,50,26,0.00,40.00,0,-999,0,0.00
2013-3-29,44,37,30,29,21,14,95,53,32,0.00,40.00,0,-999,0,0.00
2013-3-30,36,31,25,29,19,-100,95,71,50,0.00,40.00,0,-999,0,0.00
2013-3-31,43,32,22,23,18,15,84,57,34,0.00,40.00,0,-999,0,0.00
2013-4-1,38,29,21,21,16,9,85,58,31,0.00,40.00,0,-999,0,0.00
2013-4-2,46,35,25,20,16,11,70,47,30,0.00,40.00,0,-999,0,0.00
2013-4-3,44,37,30,25,19,10,79,49,36,0.00,40.00,0,-999,0,0.00
2013-4-4,50,41,33,27,22,18,63,48,30,0.00,40.00,0,-999,0,0.00
2013-4-5,44,38,28,34,27,22,97,67,47,0.00,40.00,0,-999,0,0.01
2013-4-6,40,33,27,31,26,23,89,75,51,0.00,40.00,0,-999,0,0.01
2013-4-7,41,34,29,27,23,19,90,66,45,0.00,40.00,0,-999,0,0.00
2013-4-8,31,16,6,23,14,3,96,88,71,0.00,40.00,0,-999,0,0.00
2013-4-9,15,8,0,9,0,-100,88,81,78,0.00,40.00,0,-999,0,0.02
2013-4-10,34,22,8,25,12,-100,89,73,55,0.00,40.00,0,-999,0,0.01
2013-4-11,34,28,24,28,21,-100,95,83,67,0.00,40.00,0,-999,0,0.01
2013-4-12,31,23,19,21,18,11,92,82,53,0.00,40.00,0,-999,0,0.00
2013-4-13,41,31,21,27,20,12,94,65,46,0.00,40.00,0,-999,0,0.01
2013-4-14,22,16,9,17,10,5,92,78,61,0.00,40.00,0,-999,0,0.01
2013-4-15,17,10,3,10,5,0,88,82,68,0.00,40.00,0,-999,0,0.00
2013-4-16,14,8,3,8,4,0,90,85,76,0.00,40.00,0,-999,0,0.00
2013-4-17,12,7,3,8,4,-1,89,85,80,0.00,40.00,0,-999,0,0.00
2013-4-18,28,18,2,14,6,-3,84,60,39,0.00,40.00,0,-999,0,0.01
2013-4-19,36,28,19,21,17,11,79,64,47,0.00,40.00,0,-999,0,0.01
2013-4-20,40,31,26,29,23,18,90,72,46,0.00,40.00,0,-999,0,0.01
2013-4-21,33,25,14,26,21,13,95,86,66,0.00,40.00,0,-999,0,0.02
2013-4-22,16,10,2,12,8,-1,93,87,80,0.00,40.00,0,-999,0,0.02
2013-4-23,27,17,2,18,9,-3,86,71,52,0.00,40.00,0,-999,0,0.00
2013-4-24,31,28,26,18,15,13,67,56,52,0.00,40.00,0,-999,0,0.00
2013-4-25,46,38,28,17,10,3,54,34,19,0.00,40.00,0,-999,0,0.00
2013-4-26,51,42,30,21,16,14,58,37,24,0.00,40.00,0,-999,0,0.00
2013-4-27,54,44,34,21,18,15,53,36,22,0.00,40.00,0,-999,0,0.00
2013-4-28,42,37,33,36,27,20,94,70,41,0.00,40.00,0,-999,0,0.00
2013-4-29,49,40,27,31,23,17,97,55,31,0.00,40.00,0,-999,0,0.01
2013-4-30,24,20,17,23,19,16,97,94,91,0.00,40.00,0,-999,0,0.03
2013-5-1,24,18,13,19,14,8,94,87,77,0.00,40.00,0,-999,0,0.01
2013-5-2,39,27,13,20,16,9,89,66,44,0.00,40.00,0,-999,0,0.01
2013-5-3,47,36,28,31,21,14,93,56,29,0.00,40.00,0,-999,0,0.01
2013-5-4,34,31,29,32,30,28,99,96,93,0.00,40.00,0,-999,0,0.01
2013-5-5,43,35,25,29,19,-100,95,68,52,0.00,40.00,0,-999,0,0.01
2013-5-6,53,44,31,29,25,23,75,50,33,0.00,40.00,0,-999,0,0.00
2013-5-7,54,44,35,29,25,22,65,49,30,0.00,40.00,0,-999,0,0.00
2013-5-8,52,43,36,32,28,22,78,56,30,0.00,40.00,0,-999,0,0.00
2013-5-9,53,41,35,39,29,23,83,66,35,0.00,40.00,0,-999,0,0.01
2013-5-10,55,42,32,36,23,-100,86,60,30,0.00,40.00,0,-999,0,0.00
2013-5-11,53,44,33,32,29,20,85,57,31,0.00,40.00,0,-999,0,0.00
2013-5-12,63,52,41,35,30,28,64,44,27,0.00,40.00,0,-999,0,0.00
2013-5-13,68,58,47,33,30,26,55,36,21,0.00,40.00,0,-999,0,0.00
2013-5-14,64,55,40,43,32,22,82,47,20,0.00,40.00,0,-999,0,0.00
2013-5-15,60,48,40,38,34,28,87,60,36,0.00,40.00,0,-999,0,0.00
2013-5-16,54,47,41,41,20,-100,94,63,49,0.00,40.00,0,-999,0,0.00
2013-5-17,50,43,37,46,40,35,98,88,68,0.00,40.00,0,-999,0,0.01
2013-5-18,49,40,34,45,38,32,99,92,86,0.00,40.00,0,-999,0,0.01
2013-5-19,38,36,33,38,36,33,100,99,99,0.00,40.00,0,-999,0,0.05
2013-5-20,38,33,30,38,32,30,100,97,88,0.00,40.00,0,-999,0,0.04
2013-5-21,45,37,31,35,33,31,100,84,65,0.00,40.00,0,-999,0,0.01
2013-5-22,51,43,31,41,35,26,97,75,52,0.00,40.00,0,-999,0,0.00
2013-5-23,65,53,43,41,33,23,88,50,21,0.00,40.00,0,-999,0,0.00
2013-5-24,56,48,40,38,28,10,93,54,16,0.00,40.00,0,-999,0,0.00
2013-5-25,65,53,39,36,21,13,76,33,15,0.00,40.00,0,-999,0,0.00
2013-5-26,58,46,39,45,39,32,95,77,52,0.00,40.00,0,-999,0,0.00
2013-5-27,53,44,37,44,32,23,92,66,39,0.00,40.00,0,-999,0,0.01
2013-5-28,51,42,36,39,33,25,97,70,47,0.00,40.00,0,-999,0,0.00
2013-5-29,41,39,37,41,38,36,99,98,97,0.00,40.00,0,-999,0,0.02
2013-5-30,42,36,33,40,35,31,99,95,92,0.00,40.00,0,-999,0,0.01
2013-5-31,42,35,32,34,30,28,98,83,74,0.00,40.00,0,-999,0,0.01
2013-6-1,45,37,29,39,34,27,99,86,76,0.00,40.00,0,-999,0,0.02
2013-6-2,60,51,39,45,35,28,74,57,31,0.00,40.00,0,-999,0,0.00
2013-6-3,52,45,38,39,30,24,92,58,38,0.00,40.00,0,-999,0,0.01
2013-6-4,39,33,30,32,30,23,100,91,71,0.00,40.00,0,-999,0,0.00
2013-6-5,47,39,30,39,34,27,97,80,61,0.00,40.00,0,-999,0,0.00
2013-6-6,57,49,40,41,36,27,84,62,46,0.00,40.00,0,-999,0,0.00
2013-6-7,66,54,45,47,37,30,72,54,29,0.00,40.00,0,-999,0,0.00
2013-6-8,52,45,39,45,39,36,95,80,56,0.00,40.00,0,-999,0,0.02
2013-6-9,69,57,43,37,31,24,66,40,20,0.00,40.00,0,-999,0,0.00
2013-6-10,73,59,48,49,40,29,89,53,26,0.00,40.00,0,-999,0,0.00
2013-6-11,69,55,44,54,46,33,94,73,42,0.00,40.00,0,-999,0,0.02
2013-6-12,67,53,44,51,44,35,98,74,32,0.00,40.00,0,-999,0,0.01
2013-6-13,70,57,45,52,43,34,96,65,27,0.00,40.00,0,-999,0,0.01
2013-6-14,56,47,36,44,32,20,98,61,28,0.00,40.00,0,-999,0,0.00
2013-6-15,62,47,34,39,25,5,76,47,11,0.00,40.00,0,-999,0,0.00
2013-6-16,62,53,43,42,32,17,85,47,31,0.00,40.00,0,-999,0,0.00
2013-6-17,60,52,45,50,43,35,90,72,57,0.00,40.00,0,-999,0,0.00
2013-6-18,70,55,48,46,36,30,91,52,30,0.00,40.00,0,-999,0,0.00
2013-6-19,76,64,50,37,23,12,50,24,10,0.00,40.00,0,-999,0,0.00
2013-6-20,60,52,42,28,14,6,39,23,14,0.00,40.00,0,-999,0,0.00
2013-6-22,49,43,38,45,41,36,98,92,69,0.00,40.00,0,-999,0,0.02
2013-6-23,58,48,35,45,35,29,98,64,34,0.00,40.00,0,-999,0,0.01
2013-6-24,73,60,45,41,30,24,86,35,16,0.00,40.00,0,-999,0,0.00
2013-6-25,62,55,47,45,34,27,89,48,30,0.00,40.00,0,-999,0,0.00
2013-6-26,67,58,48,43,38,32,68,47,35,0.00,40.00,0,-999,0,0.00
2013-6-27,73,61,50,50,42,31,86,53,21,0.00,40.00,0,-999,0,0.00
2013-6-28,71,62,54,50,47,43,87,58,44,0.00,40.00,0,-999,0,0.00
2013-6-29,69,62,54,51,46,39,71,57,51,0.00,40.00,0,-999,0,0.00
2013-6-30,70,61,53,53,47,41,82,61,46,0.00,40.00,0,-999,0,0.00
2013-7-1,68,61,53,49,46,40,75,59,49,0.00,40.00,0,-999,0,0.00
2013-7-2,72,61,50,47,44,40,82,56,37,0.00,40.00,0,-999,0,0.00
2013-7-3,73,66,58,51,45,38,61,47,36,0.00,40.00,0,-999,0,0.00
2013-7-4,68,60,51,58,48,36,96,68,44,0.00,40.00,0,-999,0,0.03
2013-7-5,63,56,50,54,50,45,97,83,66,0.00,40.00,0,-999,0,0.04
2013-7-6,64,56,51,53,44,40,83,66,45,0.00,40.00,0,-999,0,0.00
2013-7-7,74,61,51,47,42,33,83,55,23,0.00,40.00,0,-999,0,0.00
2013-7-8,73,59,53,46,40,33,78,51,30,0.00,40.00,0,-999,0,0.00
2013-7-9,65,56,50,48,43,36,87,64,46,0.00,40.00,0,-999,0,0.00
2013-7-10,75,63,51,47,42,34,86,49,23,0.00,40.00,0,-999,0,0.00
2013-7-11,80,68,60,43,36,30,54,33,17,0.00,40.00,0,-999,0,0.00
2013-7-12,66,57,52,50,43,31,89,61,27,0.00,40.00,0,-999,0,0.01
2013-7-13,73,62,52,50,35,24,92,41,18,0.00,40.00,0,-999,0,0.00
2013-7-14,70,58,48,52,47,43,98,70,47,0.00,40.00,0,-999,0,0.00
2013-7-15,77,63,56,47,40,31,59,44,25,0.00,40.00,0,-999,0,0.00
2013-7-16,69,57,52,53,49,28,95,76,32,0.00,40.00,0,-999,0,0.01
2013-7-17,74,63,54,57,49,43,85,61,45,0.00,40.00,0,-999,0,0.00
2013-7-18,71,65,56,53,47,41,68,53,41,0.00,40.00,0,-999,0,0.00
2013-7-19,74,63,53,49,37,-100,78,49,33,0.00,40.00,0,-999,0,0.00
2013-7-20,68,62,55,45,42,40,59,49,41,0.00,40.00,0,-999,0,0.01
2013-7-21,73,63,53,41,36,27,60,39,26,0.00,40.00,0,-999,0,0.00
2013-7-22,77,65,52,38,31,18,50,31,11,0.00,40.00,0,-999,0,0.00
2013-7-23,71,62,52,45,37,33,72,42,28,0.00,40.00,0,-999,0,0.00
2013-7-24,71,62,51,48,41,31,67,49,23,0.00,40.00,0,-999,0,0.00
2013-7-25,63,56,49,52,44,28,89,67,32,0.00,40.00,0,-999,0,0.00
2013-7-26,67,59,49,52,46,40,86,63,50,0.00,40.00,0,-999,0,0.87
2013-7-27,69,57,51,50,41,26,86,57,31,0.00,40.00,0,-999,0,0.01
2013-7-28,61,55,50,50,42,35,84,63,48,0.00,40.00,0,-999,0,0.01
2013-7-29,55,51,48,50,45,38,94,81,56,0.00,40.00,0,-999,0,0.00
2013-7-30,66,55,46,51,42,35,96,65,31,0.00,40.00,0,-999,0,0.01
2013-7-31,67,57,44,50,45,40,96,67,47,0.00,40.00,0,-999,0,0.01
2013-8-1,69,61,49,45,43,38,72,53,41,0.00,40.00,0,-999,0,0.00
2013-8-2,69,59,47,50,40,20,93,58,16,0.00,40.00,0,-999,0,0.00
2013-8-3,69,58,48,56,49,37,95,75,37,0.00,40.00,0,-999,0,0.00
2013-8-4,74,61,52,55,44,24,94,61,16,0.00,40.00,0,-999,0,0.00
2013-8-5,75,58,50,49,42,27,93,61,18,0.00,40.00,0,-999,0,0.00
2013-8-6,62,57,47,47,43,37,82,59,50,0.00,40.00,0,-999,0,0.00
2013-8-7,65,56,46,48,42,37,76,60,41,0.00,40.00,0,-999,0,0.00
2013-8-8,66,54,47,50,43,34,88,67,41,0.00,40.00,0,-999,0,0.00
2013-8-9,58,50,46,50,46,41,96,87,63,0.00,40.00,0,-999,0,0.02
2013-8-10,65,57,47,52,44,32,93,63,36,0.00,40.00,0,-999,0,0.01
2013-8-11,69,57,49,47,38,33,67,50,32,0.00,40.00,0,-999,0,0.01
2013-8-12,67,58,52,46,36,31,60,45,33,0.00,40.00,0,-999,0,0.00
2013-8-13,64,52,45,48,39,31,89,62,39,0.00,40.00,0,-999,0,0.01
2013-8-14,64,54,47,43,38,34,72,55,41,0.00,40.00,0,-999,0,0.01
2013-8-15,70,61,51,39,36,31,58,41,28,0.00,40.00,0,-999,0,0.00
2013-8-16,76,73,60,36,27,20,40,19,13,0.00,40.00,0,-999,0,0.00
2013-8-17,76,69,59,39,30,21,46,26,14,0.00,40.00,0,-999,0,0.00
2013-8-18,73,63,57,47,40,30,60,44,23,0.00,40.00,0,-999,0,0.00
2013-8-19,77,64,56,43,39,34,57,41,24,0.00,40.00,0,-999,0,0.00
2013-8-20,74,66,59,40,22,-100,42,29,25,0.00,40.00,0,-999,0,0.00
2013-8-21,68,62,55,44,40,37,57,45,33,0.00,40.00,0,-999,0,0.01
2013-8-22,69,62,56,51,46,40,76,58,38,0.00,40.00,0,-999,0,0.00
2013-8-23,74,67,59,48,43,38,55,42,28,0.00,40.00,0,-999,0,0.00
2013-8-24,65,57,50,51,48,43,94,74,56,0.00,40.00,0,-999,0,0.01
2013-8-25,71,61,54,46,40,37,61,48,32,0.00,40.00,0,-999,0,0.00
2013-8-26,70,64,58,42,39,37,49,41,32,0.00,40.00,0,-999,0,0.00
2013-8-27,65,61,57,44,42,39,59,49,38,0.00,40.00,0,-999,0,0.00
2013-8-28,75,71,62,46,21,-100,43,30,27,0.00,40.00,0,-999,0,0.00
2013-8-29,72,66,56,44,41,38,64,42,34,0.00,40.00,0,-999,0,0.00
2013-8-30,75,67,56,40,33,25,54,30,16,0.00,40.00,0,-999,0,0.00
2013-8-31,62,55,48,43,39,35,75,55,42,0.00,40.00,0,-999,0,0.00
2013-9-1,72,61,49,39,36,31,70,41,26,0.00,40.00,0,-999,0,0.00
2013-9-2,75,66,57,48,35,24,64,34,17,0.00,40.00,0,-999,0,0.00
2013-9-3,68,60,55,51,48,46,73,65,55,0.00,40.00,0,-999,0,0.00
2013-9-4,70,64,53,52,49,44,87,58,41,0.00,40.00,0,-999,0,0.00
2013-9-5,79,69,57,50,44,36,69,43,24,0.00,40.00,0,-999,0,0.00
2013-9-6,73,65,57,47,41,36,68,43,28,0.00,40.00,0,-999,0,0.00
2013-9-7,72,62,52,54,48,45,79,63,38,0.00,40.00,0,-999,0,0.00
2013-9-8,62,53,46,54,49,43,97,89,74,0.00,40.00,0,-999,0,0.01
2013-9-9,54,47,41,49,42,38,97,82,67,0.00,40.00,0,-999,0,0.01
2013-9-10,58,50,43,44,31,-100,82,63,54,0.00,40.00,0,-999,0,0.00
2013-9-11,62,56,46,42,39,33,67,53,44,0.00,40.00,0,-999,0,0.00
2013-9-12,63,53,44,44,40,37,80,63,39,0.00,40.00,0,-999,0,0.00
2013-9-13,61,52,47,49,28,-100,98,72,63,0.00,40.00,0,-999,0,0.02
2013-9-14,54,48,44,49,37,-100,99,84,72,0.00,40.00,0,-999,0,0.09
2013-9-15,53,48,42,50,47,42,99,95,88,0.00,40.00,0,-999,0,0.09
2013-9-16,63,54,45,48,42,35,85,65,51,0.00,40.00,0,-999,0,0.00
2013-9-17,68,55,45,46,39,33,94,60,28,0.00,40.00,0,-999,0,0.01
2013-9-18,45,40,36,43,36,31,94,86,78,0.00,40.00,0,-999,0,0.02
2013-9-19,44,37,33,35,30,27,91,77,54,0.00,40.00,0,-999,0,0.01
2013-9-20,58,48,34,39,28,9,79,50,20,0.00,40.00,0,-999,0,0.00
2013-9-21,66,59,45,26,23,15,32,25,21,0.00,40.00,0,-999,0,0.00
2013-9-22,60,54,46,35,32,21,63,44,25,0.00,40.00,0,-999,0,0.00
2013-9-23,47,40,37,40,35,26,97,82,43,0.00,40.00,0,-999,0,0.02
2013-9-24,60,50,38,29,24,19,60,38,24,0.00,40.00,0,-999,0,0.00
2013-9-25,46,39,33,38,32,24,99,80,46,0.00,40.00,0,-999,0,0.01
2013-9-26,33,31,26,33,30,26,99,98,93,0.00,40.00,0,-999,0,0.03
2013-9-27,31,27,25,30,26,23,99,96,91,0.00,40.00,0,-999,0,0.03
2013-9-28,40,33,24,30,27,22,92,78,59,0.00,40.00,0,-999,0,0.01
2013-9-29,52,44,41,32,28,25,63,54,46,0.00,40.00,0,-999,0,0.00
2013-9-30,51,44,37,40,34,28,96,67,53,0.00,40.00,0,-999,0,0.00
2013-10-1,49,41,36,32,28,22,84,64,35,0.00,40.00,0,-999,0,0.00
2013-10-2,41,35,29,33,30,26,98,84,59,0.00,40.00,0,-999,0,0.02
2013-10-3,33,29,24,32,28,23,100,98,96,0.00,40.00,0,-999,0,0.05
2013-10-4,22,21,19,19,18,18,93,91,89,0.00,40.00,0,-999,0,0.07
2013-10-5,44,33,16,28,21,10,85,62,46,0.00,40.00,0,-999,0,0.01
2013-10-6,51,43,33,33,16,-100,78,51,26,0.00,40.00,0,-999,0,0.00
2013-10-7,65,52,41,20,12,8,40,21,11,0.00,40.00,0,-999,0,0.00
2013-10-8,48,40,34,33,26,14,88,59,33,0.00,40.00,0,-999,0,0.00
2013-10-9,42,36,30,35,30,28,92,82,63,0.00,40.00,0,-999,0,0.00
2013-10-10,49,44,37,31,29,27,70,56,44,0.00,40.00,0,-999,0,0.00
2013-10-11,32,29,22,31,15,-100,98,78,61,0.00,40.00,0,-999,0,0.01
2013-10-12,38,30,22,26,20,13,86,67,37,0.00,40.00,0,-999,0,0.00
2013-10-13,43,36,30,32,27,19,99,70,56,0.00,40.00,0,-999,0,0.00
2013-10-21,37,36,36,30,29,28,74,72,71,0.00,40.00,0,-999,0,0.00
2013-10-22,48,39,34,28,23,18,77,53,36,0.00,40.00,0,-999,0,0.00
2013-10-23,43,37,33,31,23,19,63,57,53,0.00,40.00,0,-999,0,0.00
2013-10-24,43,38,33,31,28,24,74,66,61,0.00,40.00,0,-999,0,0.00
2013-10-25,38,38,38,28,21,14,68,53,38,0.00,40.00,0,-999,0,0.00
2013-10-26,51,43,34,19,17,14,52,36,24,0.00,40.00,0,-999,0,0.00
2013-10-27,45,36,28,24,21,18,83,58,34,0.00,40.00,0,-999,0,0.00
2013-10-28,27,24,19,26,23,19,99,97,96,0.00,40.00,0,-999,0,0.00
2013-10-29,39,28,19,37,26,18,97,92,83,0.00,40.00,0,-999,0,0.00
2013-10-30,34,31,29,23,22,21,74,69,59,0.00,40.00,0,-999,0,0.00
2013-10-31,36,31,26,27,23,20,87,75,62,0.00,40.00,0,-999,0,0.00
2013-11-1,34,28,21,19,17,13,84,66,48,0.00,40.00,0,-999,0,0.00
2013-11-2,49,45,40,13,5,0,33,20,13,0.00,40.00,0,-999,0,0.00
2013-11-3,38,28,15,26,4,-100,96,67,37,0.00,40.00,0,-999,0,0.00
2013-11-4,21,15,10,15,10,5,94,80,59,0.00,40.00,0,-999,0,0.00
2013-11-5,20,18,10,8,6,3,82,60,50,0.00,40.00,0,-999,0,0.00
2013-11-12,53,42,28,19,11,-5,63,31,11,0.00,40.00,0,-999,0,0.00
2013-11-13,43,41,36,26,22,19,68,48,39,0.00,40.00,0,-999,0,0.00
2013-11-14,32,28,26,17,-8,-100,62,40,39,0.00,40.00,0,-999,0,0.00
2013-11-15,30,28,25,12,9,7,50,45,42,0.00,40.00,0,-999,0,0.00
2013-11-16,26,23,20,19,-2,-100,84,58,48,0.00,40.00,0,-999,0,0.00
2013-11-17,21,21,21,10,10,10,62,62,62,0.00,40.00,0,-999,0,0.00
2013-11-18,43,36,26,12,10,8,52,35,24,0.00,40.00,0,-999,0,0.01
2013-11-19,40,35,32,23,18,9,62,50,32,0.00,40.00,0,-999,0,0.00
2013-11-20,33,23,8,21,14,5,89,71,55,0.00,40.00,0,-999,0,0.00
2013-11-21,19,10,5,11,-11,-100,89,58,55,0.00,40.00,0,-999,0,0.01
2013-11-22,22,16,12,7,-1,-13,59,47,28,0.00,40.00,0,-999,0,0.00
2013-11-23,39,29,19,11,3,-5,50,34,23,0.00,40.00,0,-999,0,0.01
2013-11-24,41,32,26,18,9,-5,57,40,14,0.00,40.00,0,-999,0,0.00
2013-11-25,29,27,24,15,15,13,61,59,56,0.00,40.00,0,-999,0,0.00
2013-11-26,33,30,28,21,18,15,62,60,57,0.00,40.00,0,-999,0,0.00
2013-11-29,42,38,31,16,14,12,53,38,32,0.00,40.00,0,-999,0,0.00
2013-11-30,32,30,29,21,18,14,66,60,53,0.00,40.00,0,-999,0,0.00
2013-12-2,35,32,22,27,24,21,95,74,63,0.00,40.00,0,-999,0,0.00
2013-12-3,0,-4,-10,-4,-9,-15,86,82,79,0.00,40.00,0,-999,0,0.01
2013-12-4,-6,-10,-14,-11,-14,-19,80,78,77,0.00,40.00,0,-999,0,0.00
2013-12-5,-5,-12,-17,-10,-17,-23,77,75,73,0.00,40.00,0,-999,0,0.00
2013-12-6,-1,-11,-18,-11,-18,-24,75,71,61,0.00,40.00,0,-999,0,0.00
2013-12-7,4,-2,-10,-2,-8,-17,80,75,71,0.00,40.00,0,-999,0,0.01
2013-12-8,1,-4,-10,-7,-11,-17,80,72,65,0.00,40.00,0,-999,0,0.00
2013-12-9,13,9,7,7,3,-1,77,74,69,0.00,40.00,0,-999,0,0.01
2013-12-10,15,10,7,7,3,1,76,71,66,0.00,40.00,0,-999,0,0.00
2013-12-11,23,23,23,2,2,2,39,39,39,0.00,40.00,0,-999,0,0.00